Year,Month,Day,Hour,Minute,Value (Times are PST for temperature in C)
2014,03,25,00,00,9.20
2014,03,25,00,01,9.20
2014,03,25,00,02,9.20
2014,03,25,00,03,9.20
2014,03,25,00,04,9.20
2014,03,25,00,05,9.10
2014,03,25,00,06,9.10
2014,03,25,00,07,9.10
2014,03,25,00,08,9.10
2014,03,25,00,09,9.00
2014,03,25,00,10,9.00
2014,03,25,00,11,9.00
2014,03,25,00,12,9.00
2014,03,25,00,13,9.00
2014,03,25,00,16,8.90
2014,03,25,00,17,8.80
2014,03,25,00,18,8.70
2014,03,25,00,19,8.70
2014,03,25,00,20,8.70
2014,03,25,00,21,8.70
2014,03,25,00,22,8.70
2014,03,25,00,23,8.60
2014,03,25,00,24,8.50
2014,03,25,00,25,8.50
2014,03,25,00,26,8.50
2014,03,25,00,27,8.40
2014,03,25,00,28,8.40
2014,03,25,00,29,8.40
2014,03,25,00,30,8.40
2014,03,25,00,31,8.40
2014,03,25,00,32,8.40
2014,03,25,00,33,8.30
2014,03,25,00,34,8.30
2014,03,25,00,35,8.30
2014,03,25,00,36,8.30
2014,03,25,00,37,8.30
2014,03,25,00,38,8.30
2014,03,25,00,39,8.30
2014,03,25,00,40,8.30
2014,03,25,00,41,8.30
2014,03,25,00,42,8.30
2014,03,25,00,43,8.30
2014,03,25,00,44,8.30
2014,03,25,00,45,8.30
2014,03,25,00,46,8.30
2014,03,25,00,47,8.30
2014,03,25,00,48,8.30
2014,03,25,00,49,8.40
2014,03,25,00,50,8.40
2014,03,25,00,51,8.40
2014,03,25,00,52,8.40
2014,03,25,00,53,8.40
2014,03,25,00,54,8.40
2014,03,25,00,55,8.40
2014,03,25,00,56,8.40
2014,03,25,00,57,8.40
2014,03,25,00,58,8.40
2014,03,25,00,59,8.40
2014,03,25,01,00,8.40
2014,03,25,01,01,8.40
2014,03,25,01,02,8.40
2014,03,25,01,03,8.40
2014,03,25,01,04,8.40
2014,03,25,01,05,8.40
2014,03,25,01,06,8.30
2014,03,25,01,07,8.30
2014,03,25,01,08,8.30
2014,03,25,01,09,8.30
2014,03,25,01,10,8.30
2014,03,25,01,11,8.30
2014,03,25,01,12,8.30
2014,03,25,01,13,8.30
2014,03,25,01,14,8.30
2014,03,25,01,15,8.30
2014,03,25,01,16,8.20
2014,03,25,01,17,8.20
2014,03,25,01,18,8.20
2014,03,25,01,19,8.20
2014,03,25,01,20,8.20
2014,03,25,01,21,8.20
2014,03,25,01,22,8.20
2014,03,25,01,23,8.20
2014,03,25,01,24,8.20
2014,03,25,01,25,8.20
2014,03,25,01,26,8.20
2014,03,25,01,27,8.20
2014,03,25,01,28,8.20
2014,03,25,01,29,8.20
2014,03,25,01,30,8.20
2014,03,25,01,31,8.20
2014,03,25,01,32,8.20
2014,03,25,01,33,8.20
2014,03,25,01,34,8.20
2014,03,25,01,35,8.20
2014,03,25,01,36,8.20
2014,03,25,01,37,8.20
2014,03,25,01,38,8.20
2014,03,25,01,39,8.20
2014,03,25,01,40,8.20
2014,03,25,01,41,8.20
2014,03,25,01,42,8.20
2014,03,25,01,43,8.20
2014,03,25,01,44,8.20
2014,03,25,01,45,8.20
2014,03,25,01,46,8.20
2014,03,25,01,47,8.10
2014,03,25,01,48,8.10
2014,03,25,01,49,8.10
2014,03,25,01,50,8.10
2014,03,25,01,51,8.10
2014,03,25,01,52,8.10
2014,03,25,01,53,8.10
2014,03,25,01,54,8.00
2014,03,25,01,55,8.00
2014,03,25,01,56,8.00
2014,03,25,01,57,8.00
2014,03,25,01,58,8.00
2014,03,25,01,59,8.00
2014,03,25,02,00,8.00
2014,03,25,02,01,8.00
2014,03,25,02,02,8.00
2014,03,25,02,03,8.00
2014,03,25,02,04,7.90
2014,03,25,02,05,7.90
2014,03,25,02,06,7.90
2014,03,25,02,07,7.90
2014,03,25,02,08,7.80
2014,03,25,02,09,7.80
2014,03,25,02,10,7.80
2014,03,25,02,11,7.80
2014,03,25,02,12,7.80
2014,03,25,02,13,7.80
2014,03,25,02,14,7.80
2014,03,25,02,15,7.80
2014,03,25,02,16,7.80
2014,03,25,02,17,7.80
2014,03,25,02,18,7.80
2014,03,25,02,19,7.80
2014,03,25,02,20,7.80
2014,03,25,02,21,7.80
2014,03,25,02,22,7.70
2014,03,25,02,23,7.70
2014,03,25,02,24,7.70
2014,03,25,02,25,7.70
2014,03,25,02,26,7.70
2014,03,25,02,27,7.70
2014,03,25,02,28,7.70
2014,03,25,02,29,7.70
2014,03,25,02,30,7.70
2014,03,25,02,31,7.70
2014,03,25,02,32,7.80
2014,03,25,02,33,7.80
2014,03,25,02,34,7.80
2014,03,25,02,35,7.80
2014,03,25,02,36,7.80
2014,03,25,02,37,7.80
2014,03,25,02,38,7.80
2014,03,25,02,39,7.80
2014,03,25,02,40,7.80
2014,03,25,02,41,7.80
2014,03,25,02,42,7.80
2014,03,25,02,43,7.80
2014,03,25,02,44,7.80
2014,03,25,02,45,7.80
2014,03,25,02,46,7.80
2014,03,25,02,47,7.80
2014,03,25,02,48,7.80
2014,03,25,02,49,7.80
2014,03,25,02,50,7.80
2014,03,25,02,51,7.80
2014,03,25,02,52,7.80
2014,03,25,02,53,7.80
2014,03,25,02,54,7.80
2014,03,25,02,55,7.80
2014,03,25,02,56,7.80
2014,03,25,02,57,7.80
2014,03,25,02,58,7.80
2014,03,25,02,59,7.80
2014,03,25,03,00,7.80
2014,03,25,03,01,7.80
2014,03,25,03,02,7.80
2014,03,25,03,03,7.80
2014,03,25,03,04,7.80
2014,03,25,03,05,7.80
2014,03,25,03,06,7.80
2014,03,25,03,07,7.80
2014,03,25,03,08,7.80
2014,03,25,03,09,7.80
2014,03,25,03,10,7.80
2014,03,25,03,11,7.80
2014,03,25,03,12,7.80
2014,03,25,03,13,7.80
2014,03,25,03,14,7.80
2014,03,25,03,15,7.80
2014,03,25,03,16,7.80
2014,03,25,03,17,7.80
2014,03,25,03,18,7.70
2014,03,25,03,19,7.70
2014,03,25,03,20,7.70
2014,03,25,03,21,7.70
2014,03,25,03,22,7.70
2014,03,25,03,23,7.70
2014,03,25,03,24,7.70
2014,03,25,03,25,7.70
2014,03,25,03,26,7.70
2014,03,25,03,27,7.70
2014,03,25,03,28,7.70
2014,03,25,03,29,7.70
2014,03,25,03,30,7.70
2014,03,25,03,31,7.70
2014,03,25,03,32,7.70
2014,03,25,03,33,7.70
2014,03,25,03,34,7.70
2014,03,25,03,35,7.70
2014,03,25,03,36,7.70
2014,03,25,03,37,7.70
2014,03,25,03,38,7.70
2014,03,25,03,39,7.70
2014,03,25,03,40,7.70
2014,03,25,03,41,7.70
2014,03,25,03,42,7.70
2014,03,25,03,43,7.70
2014,03,25,03,44,7.70
2014,03,25,03,45,7.70
2014,03,25,03,46,7.70
2014,03,25,03,47,7.70
2014,03,25,03,48,7.70
2014,03,25,03,49,7.70
2014,03,25,03,50,7.70
2014,03,25,03,51,7.70
2014,03,25,03,52,7.70
2014,03,25,03,53,7.70
2014,03,25,03,54,7.70
2014,03,25,03,55,7.70
2014,03,25,03,56,7.80
2014,03,25,03,57,7.80
2014,03,25,03,58,7.80
2014,03,25,03,59,7.80
2014,03,25,04,00,7.80
2014,03,25,04,01,7.80
2014,03,25,04,02,7.70
2014,03,25,04,03,7.70
2014,03,25,04,04,7.70
2014,03,25,04,05,7.80
2014,03,25,04,06,7.80
2014,03,25,04,07,7.70
2014,03,25,04,08,7.70
2014,03,25,04,09,7.70
2014,03,25,04,10,7.70
2014,03,25,04,11,7.70
2014,03,25,04,12,7.70
2014,03,25,04,13,7.70
2014,03,25,04,14,7.70
2014,03,25,04,15,7.70
2014,03,25,04,16,7.70
2014,03,25,04,17,7.70
2014,03,25,04,18,7.70
2014,03,25,04,19,7.70
2014,03,25,04,20,7.70
2014,03,25,04,21,7.70
2014,03,25,04,22,7.70
2014,03,25,04,23,7.70
2014,03,25,04,24,7.70
2014,03,25,04,25,7.70
2014,03,25,04,26,7.70
2014,03,25,04,27,7.70
2014,03,25,04,28,7.70
2014,03,25,04,29,7.70
2014,03,25,04,30,7.70
2014,03,25,04,31,7.70
2014,03,25,04,32,7.70
2014,03,25,04,33,7.70
2014,03,25,04,34,7.70
2014,03,25,04,35,7.70
2014,03,25,04,36,7.70
2014,03,25,04,37,7.70
2014,03,25,04,38,7.70
2014,03,25,04,39,7.70
2014,03,25,04,40,7.70
2014,03,25,04,41,7.70
2014,03,25,04,42,7.70
2014,03,25,04,43,7.70
2014,03,25,04,44,7.70
2014,03,25,04,45,7.70
2014,03,25,04,46,7.70
2014,03,25,04,47,7.80
2014,03,25,04,48,7.80
2014,03,25,04,49,7.70
2014,03,25,04,50,7.70
2014,03,25,04,51,7.70
2014,03,25,04,52,7.70
2014,03,25,04,53,7.70
2014,03,25,04,54,7.70
2014,03,25,04,55,7.70
2014,03,25,04,56,7.70
2014,03,25,04,57,7.70
2014,03,25,04,58,7.70
2014,03,25,04,59,7.70
2014,03,25,05,00,7.70
2014,03,25,05,01,7.70
2014,03,25,05,02,7.70
2014,03,25,05,03,7.70
2014,03,25,05,04,7.70
2014,03,25,05,05,7.70
2014,03,25,05,06,7.80
2014,03,25,05,07,7.80
2014,03,25,05,08,7.80
2014,03,25,05,09,7.80
2014,03,25,05,10,7.80
2014,03,25,05,11,7.80
2014,03,25,05,12,7.80
2014,03,25,05,13,7.80
2014,03,25,05,14,7.80
2014,03,25,05,15,7.80
2014,03,25,05,16,7.80
2014,03,25,05,17,7.80
2014,03,25,05,18,7.80
2014,03,25,05,19,7.80
2014,03,25,05,20,7.80
2014,03,25,05,21,7.80
2014,03,25,05,22,7.80
2014,03,25,05,23,7.80
2014,03,25,05,24,7.80
2014,03,25,05,25,7.80
2014,03,25,05,26,7.70
2014,03,25,05,27,7.80
2014,03,25,05,28,7.80
2014,03,25,05,29,7.80
2014,03,25,05,30,7.80
2014,03,25,05,31,7.80
2014,03,25,05,32,7.80
2014,03,25,05,33,7.80
2014,03,25,05,34,7.80
2014,03,25,05,35,7.90
2014,03,25,05,36,7.90
2014,03,25,05,37,7.90
2014,03,25,05,38,7.90
2014,03,25,05,39,7.90
2014,03,25,05,40,7.90
2014,03,25,05,41,8.00
2014,03,25,05,42,8.00
2014,03,25,05,43,8.00
2014,03,25,05,44,8.00
2014,03,25,05,45,8.00
2014,03,25,05,46,8.00
2014,03,25,05,47,8.00
2014,03,25,05,48,8.00
2014,03,25,05,49,8.00
2014,03,25,05,50,8.00
2014,03,25,05,51,8.00
2014,03,25,05,52,8.00
2014,03,25,05,53,8.00
2014,03,25,05,54,8.00
2014,03,25,05,55,8.00
2014,03,25,05,56,8.00
2014,03,25,05,57,8.00
2014,03,25,05,58,8.00
2014,03,25,05,59,8.00
2014,03,25,06,00,8.00
2014,03,25,06,01,8.00
2014,03,25,06,02,8.00
2014,03,25,06,03,8.00
2014,03,25,06,04,8.00
2014,03,25,06,05,8.00
2014,03,25,06,06,8.00
2014,03,25,06,07,8.00
2014,03,25,06,08,7.90
2014,03,25,06,09,7.90
2014,03,25,06,10,7.90
2014,03,25,06,11,7.90
2014,03,25,06,12,8.00
2014,03,25,06,13,8.00
2014,03,25,06,14,8.00
2014,03,25,06,15,8.10
2014,03,25,06,16,8.10
2014,03,25,06,17,8.10
2014,03,25,06,18,8.10
2014,03,25,06,19,8.10
2014,03,25,06,20,8.10
2014,03,25,06,21,8.00
2014,03,25,06,22,8.00
2014,03,25,06,23,8.00
2014,03,25,06,24,8.00
2014,03,25,06,25,8.00
2014,03,25,06,26,8.00
2014,03,25,06,27,8.00
2014,03,25,06,28,8.00
2014,03,25,06,29,8.00
2014,03,25,06,30,8.00
2014,03,25,06,31,8.00
2014,03,25,06,32,8.10
2014,03,25,06,33,8.10
2014,03,25,06,34,8.10
2014,03,25,06,35,8.10
2014,03,25,06,36,8.10
2014,03,25,06,37,8.10
2014,03,25,06,38,8.10
2014,03,25,06,39,8.10
2014,03,25,06,40,8.10
2014,03,25,06,41,8.10
2014,03,25,06,42,8.10
2014,03,25,06,43,8.10
2014,03,25,06,44,8.10
2014,03,25,06,45,8.10
2014,03,25,06,46,8.10
2014,03,25,06,47,8.10
2014,03,25,06,48,8.10
2014,03,25,06,49,8.10
2014,03,25,06,50,8.10
2014,03,25,06,51,8.20
2014,03,25,06,52,8.20
2014,03,25,06,53,8.20
2014,03,25,06,54,8.20
2014,03,25,06,55,8.20
2014,03,25,06,56,8.20
2014,03,25,06,57,8.20
2014,03,25,06,58,8.20
2014,03,25,06,59,8.20
2014,03,25,07,00,8.20
2014,03,25,07,01,8.20
2014,03,25,07,02,8.20
2014,03,25,07,03,8.20
2014,03,25,07,04,8.30
2014,03,25,07,05,8.30
2014,03,25,07,06,8.30
2014,03,25,07,07,8.30
2014,03,25,07,08,8.30
2014,03,25,07,09,8.30
2014,03,25,07,10,8.30
2014,03,25,07,11,8.30
2014,03,25,07,12,8.30
2014,03,25,07,13,8.30
2014,03,25,07,14,8.30
2014,03,25,07,15,8.30
2014,03,25,07,16,8.20
2014,03,25,07,17,8.20
2014,03,25,07,18,8.20
2014,03,25,07,19,8.20
2014,03,25,07,20,8.20
2014,03,25,07,21,8.20
2014,03,25,07,22,8.30
2014,03,25,07,23,8.30
2014,03,25,07,24,8.30
2014,03,25,07,25,8.30
2014,03,25,07,26,8.30
2014,03,25,07,27,8.30
2014,03,25,07,28,8.30
2014,03,25,07,29,8.30
2014,03,25,07,30,8.30
2014,03,25,07,31,8.30
2014,03,25,07,32,8.30
2014,03,25,07,33,8.30
2014,03,25,07,34,8.30
2014,03,25,07,35,8.30
2014,03,25,07,36,8.30
2014,03,25,07,37,8.30
2014,03,25,07,38,8.30
2014,03,25,07,39,8.30
2014,03,25,07,40,8.30
2014,03,25,07,41,8.30
2014,03,25,07,42,8.30
2014,03,25,07,43,8.30
2014,03,25,07,44,8.30
2014,03,25,07,45,8.30
2014,03,25,07,46,8.30
2014,03,25,07,47,8.30
2014,03,25,07,48,8.30
2014,03,25,07,49,8.30
2014,03,25,07,50,8.30
2014,03,25,07,51,8.30
2014,03,25,07,52,8.30
2014,03,25,07,53,8.30
2014,03,25,07,54,8.30
2014,03,25,07,55,8.30
2014,03,25,07,56,8.30
2014,03,25,07,57,8.30
2014,03,25,07,58,8.30
2014,03,25,07,59,8.30
2014,03,25,08,00,8.30
2014,03,25,08,01,8.20
2014,03,25,08,02,8.20
2014,03,25,08,03,8.20
2014,03,25,08,04,8.20
2014,03,25,08,05,8.20
2014,03,25,08,06,8.20
2014,03,25,08,07,8.20
2014,03,25,08,08,8.20
2014,03,25,08,09,8.20
2014,03,25,08,10,8.20
2014,03,25,08,11,8.20
2014,03,25,08,12,8.20
2014,03,25,08,13,8.20
2014,03,25,08,14,8.20
2014,03,25,08,15,8.20
2014,03,25,08,16,8.20
2014,03,25,08,17,8.20
2014,03,25,08,18,8.20
2014,03,25,08,19,8.20
2014,03,25,08,20,8.20
2014,03,25,08,21,8.20
2014,03,25,08,22,8.20
2014,03,25,08,23,8.20
2014,03,25,08,24,8.20
2014,03,25,08,25,8.20
2014,03,25,08,26,8.20
2014,03,25,08,27,8.20
2014,03,25,08,28,8.30
2014,03,25,08,29,8.30
2014,03,25,08,30,8.30
2014,03,25,08,31,8.30
2014,03,25,08,32,8.30
2014,03,25,08,33,8.30
2014,03,25,08,34,8.30
2014,03,25,08,35,8.30
2014,03,25,08,36,8.30
2014,03,25,08,37,8.40
2014,03,25,08,38,8.40
2014,03,25,08,39,8.40
2014,03,25,08,40,8.40
2014,03,25,08,41,8.40
2014,03,25,08,42,8.40
2014,03,25,08,43,8.50
2014,03,25,08,44,8.50
2014,03,25,08,45,8.50
2014,03,25,08,46,8.50
2014,03,25,08,47,8.50
2014,03,25,08,48,8.50
2014,03,25,08,49,8.50
2014,03,25,08,50,8.50
2014,03,25,08,51,8.50
2014,03,25,08,52,8.50
2014,03,25,08,53,8.50
2014,03,25,08,54,8.50
2014,03,25,08,55,8.50
2014,03,25,08,56,8.50
2014,03,25,08,57,8.50
2014,03,25,08,58,8.50
2014,03,25,08,59,8.50
2014,03,25,09,00,8.50
2014,03,25,09,01,8.50
2014,03,25,09,02,8.50
2014,03,25,09,03,8.50
2014,03,25,09,04,8.50
2014,03,25,09,05,8.50
2014,03,25,09,06,8.60
2014,03,25,09,07,8.60
2014,03,25,09,08,8.60
2014,03,25,09,09,8.60
2014,03,25,09,10,8.60
2014,03,25,09,11,8.60
2014,03,25,09,12,8.70
2014,03,25,09,13,8.70
2014,03,25,09,14,8.70
2014,03,25,09,15,8.70
2014,03,25,09,16,8.70
2014,03,25,09,17,8.70
2014,03,25,09,18,8.70
2014,03,25,09,19,8.70
2014,03,25,09,20,8.70
2014,03,25,09,21,8.70
2014,03,25,09,22,8.70
2014,03,25,09,23,8.70
2014,03,25,09,24,8.70
2014,03,25,09,25,8.70
2014,03,25,09,26,8.70
2014,03,25,09,27,8.80
2014,03,25,09,28,8.80
2014,03,25,09,29,8.80
2014,03,25,09,30,8.80
2014,03,25,09,31,8.80
2014,03,25,09,32,8.90
2014,03,25,09,33,8.90
2014,03,25,09,34,8.90
2014,03,25,09,35,9.00
2014,03,25,09,36,9.00
2014,03,25,09,37,9.00
2014,03,25,09,38,9.10
2014,03,25,09,39,9.10
2014,03,25,09,40,9.20
2014,03,25,09,41,9.20
2014,03,25,09,42,9.20
2014,03,25,09,43,9.20
2014,03,25,09,44,9.30
2014,03,25,09,45,9.30
2014,03,25,09,46,9.40
2014,03,25,09,47,9.40
2014,03,25,09,48,9.40
2014,03,25,09,49,9.50
2014,03,25,09,50,9.50
2014,03,25,09,51,9.50
2014,03,25,09,52,9.60
2014,03,25,09,53,9.60
2014,03,25,09,54,9.60
2014,03,25,09,55,9.60
2014,03,25,09,56,9.60
2014,03,25,09,57,9.70
2014,03,25,09,58,9.70
2014,03,25,09,59,9.70
2014,03,25,10,00,9.70
2014,03,25,10,01,9.70
2014,03,25,10,02,9.70
2014,03,25,10,03,9.70
2014,03,25,10,04,9.70
2014,03,25,10,05,9.70
2014,03,25,10,06,9.70
2014,03,25,10,07,9.70
2014,03,25,10,08,9.80
2014,03,25,10,09,9.80
2014,03,25,10,10,9.80
2014,03,25,10,11,9.80
2014,03,25,10,12,9.80
2014,03,25,10,13,9.80
2014,03,25,10,14,9.90
2014,03,25,10,15,9.90
2014,03,25,10,16,9.90
2014,03,25,10,17,9.90
2014,03,25,10,18,9.90
2014,03,25,10,19,9.90
2014,03,25,10,20,10.00
2014,03,25,10,21,10.10
2014,03,25,10,22,10.10
2014,03,25,10,23,10.10
2014,03,25,10,24,10.10
2014,03,25,10,25,10.10
2014,03,25,10,26,10.20
2014,03,25,10,27,10.20
2014,03,25,10,28,10.20
2014,03,25,10,29,10.20
2014,03,25,10,30,10.20
2014,03,25,10,31,10.30
2014,03,25,10,32,10.30
2014,03,25,10,33,10.30
2014,03,25,10,34,10.30
2014,03,25,10,35,10.30
2014,03,25,10,36,10.40
2014,03,25,10,37,10.40
2014,03,25,10,38,10.40
2014,03,25,10,39,10.40
2014,03,25,10,40,10.40
2014,03,25,10,41,10.30
2014,03,25,10,42,10.30
2014,03,25,10,43,10.30
2014,03,25,10,44,10.30
2014,03,25,10,45,10.20
2014,03,25,10,46,10.20
2014,03,25,10,47,10.20
2014,03,25,10,48,10.10
2014,03,25,10,49,10.10
2014,03,25,10,50,10.10
2014,03,25,10,51,10.10
2014,03,25,10,52,10.10
2014,03,25,10,53,10.10
2014,03,25,10,54,10.10
2014,03,25,10,55,10.10
2014,03,25,10,56,10.10
2014,03,25,10,57,10.10
2014,03,25,10,58,10.10
2014,03,25,10,59,10.10
2014,03,25,11,00,10.10
2014,03,25,11,01,10.10
2014,03,25,11,02,10.10
2014,03,25,11,03,10.10
2014,03,25,11,04,10.10
2014,03,25,11,05,10.10
2014,03,25,11,06,10.10
2014,03,25,11,07,10.10
2014,03,25,11,08,10.10
2014,03,25,11,09,10.10
2014,03,25,11,10,10.10
2014,03,25,11,11,10.10
2014,03,25,11,12,10.10
2014,03,25,11,13,10.10
2014,03,25,11,14,10.10
2014,03,25,11,15,10.10
2014,03,25,11,16,10.10
2014,03,25,11,17,10.10
2014,03,25,11,18,10.10
2014,03,25,11,19,10.10
2014,03,25,11,20,10.10
2014,03,25,11,21,10.10
2014,03,25,11,22,10.10
2014,03,25,11,23,10.10
2014,03,25,11,24,10.10
2014,03,25,11,25,10.10
2014,03,25,11,26,10.10
2014,03,25,11,27,10.10
2014,03,25,11,28,10.10
2014,03,25,11,29,10.10
2014,03,25,11,30,10.10
2014,03,25,11,31,10.10
